Location: Catenanuova
(37.5690°N, 14.6870°E)
Time: 10:06:00
(UTC+02:00)

Hubble Space Telescope - Pass Details

Date: 01 June 2024
Orbit: 511 x 514 km, 28.5° (Epoch: 13 June)

Event Time Altitude Azimuth Distance (km) Brightness Sun altitude
Rises 21:32:11 0° 253° (WSW) 2,611 4.7 -12.9°
Reaches altitude 10° 21:34:58 10° 234° (SW) 1,724 3.5 -13.3°
Maximum altitude 21:37:39 18° 191° (S) 1,318 2.5 -13.7°
Enters shadow 21:38:34 16° 174° (S) 1,370 2.4 -13.9°
